SHIJIAN-6 02B (SJ-6 02B)

Last updated on Mon Jun 22 2026 00:03:38 GMT+0000 (Coordinated Universal Time)

1 29506U 06046B 26172.54508406 .00001289 00000+0 10445-3 0 9994 2 29506 97.7157 201.5774 0015442 48.2115 312.0426 15.01386974 71395
UTC large
Height (km)
Speed (km/s)
/
Latitude / Longitude
Inclination (degrees)
Orbital Period (minutes)
Azimuth
Elevation
Range (km)
Doppler Factor

Next 0 passes for location: London (51.5072 / 0.1276)

No passes found over London.
SHIJIAN-6 02B (SJ-6 02B)